Cloud_Cover
100 100 100 100 100 100 100 100 100 100 100 100 100 100 100 100 100 92 78 17 86 5 5 0 0 13 3 5 5 5 5 16 5 9 5 5 76 17 38 80 100 100 78 86 86 82 27 5 5
100 100 100 100 100 100 88 86 100 100 100 100 100 100 100 100 99 95 69 67 26 15 2 0 0 4 5 5 5 5 5 6 27 5 6 14 7 38 98 100 100 100 16 35 19 62 34 23 9
100 100 98 100 100 98 72 99 100 100 100 100 100 100 100 100 98 98 95 16 12 21 5 5 7 5 20 5 5 5 10 5 5 10 8 31 52 5 97 100 100 69 16 9 91 62 26 35 41
100 100 85 100 100 100 96 84 100 100 100 99 100 100 100 100 95 79 87 7 6 9 5 0 4 5 5 4 4 5 5 90 7 11 5 5 14 68 100 100 100 100 100 100 100 100 83 96 92
100 100 100 100 100 100 100 99 79 31 98 100 100 100 100 100 99 92 71 5 21 12 6 0 1 5 5 5 5 1 5 66 100 59 73 100 100 23 0 22 43 42 100 100 100 100 74 95 63
100 100 100 100 100 94 95 97 30 60 97 100 100 100 100 100 95 22 36 41 10 18 2 0 4 5 7 12 1 2 5 39 99 29 100 61 6 0 1 47 6 4 4 90 100 100 100 100 100
100 100 100 100 100 94 91 92 59 100 60 97 69 100 99 100 98 16 45 68 27 17 7 0 0 8 5 0 1 5 5 5 84 7 5 0 0 0 5 67 25 48 48 100 82 69 45 22 11
100 100 100 100 100 100 77 51 61 42 100 94 100 97 86 100 96 69 69 58 53 21 0 16 0 0 30 1 5 5 0 0 0 0 2 0 0 0 5 5 5 84 100 100 100 100 98 100 100
100 100 100 100 100 100 99 59 99 99 100 100 100 100 100 100 100 64 99 100 88 30 0 18 5 0 5 0 1 5 1 0 0 0 0 0 0 0 0 5 56 100 100 94 100 100 100 100 100
100 100 100 100 100 100 100 100 92 94 100 100 93 100 100 100 100 100 70 100 100 44 0 0 7 0 1 0 3 0 0 0 0 0 0 0 0 0 0 0 8 81 100 100 100 100 100 100 100
100 100 100 100 100 100 100 98 99 51 33 88 100 100 100 100 100 84 5 8 9 3 0 0 0 4 5 5 1 0 0 0 0 0 0 0 0 0 0 0 0 7 47 100 100 100 100 100 100
100 83 100 100 100 100 100 100 88 66 5 95 100 100 100 100 43 5 5 5 5 4 0 0 0 2 5 5 1 0 0 0 0 0 0 0 0 0 0 0 0 0 0 13 86 95 100 100 100
92 81 72 100 100 100 100 94 100 87 99 85 100 100 96 33 5 5 5 5 5 4 0 3 0 2 4 1 5 0 0 0 0 0 0 0 0 0 0 0 0 0 0 0 0 0 0 0 1
59 96 89 55 100 100 100 100 94 100 100 97 100 100 71 5 24 5 5 5 5 4 1 0 1 1 0 0 0 0 0 0 0 0 0 0 0 0 0 0 0 0 0 0 0 0 0 0 0
5 75 94 99 99 100 100 100 100 99 100 70 32 66 26 5 5 5 5 5 5 1 4 0 2 5 2 0 0 0 0 0 0 0 0 0 0 0 0 0 0 0 0 0 6 0 0 0 0
5 6 100 62 93 100 100 100 100 100 93 5 0 5 5 5 5 5 5 5 3 4 0 0 4 5 0 0 0 0 0 0 0 0 0 0 0 0 0 0 0 0 0 0 3 5 5 4 0
5 5 72 100 16 88 100 99 100 98 89 6 1 0 0 0 5 5 5 5 1 5 0 4 4 5 3 0 0 0 0 0 0 0 0 0 0 0 0 0 0 0 0 0 0 3 5 5 4
5 0 4 100 82 81 96 100 54 95 97 17 16 4 0 0 0 5 5 5 4 5 0 1 0 5 3 0 0 0 0 0 0 0 0 0 0 0 0 0 0 0 0 0 0 4 5 5 5
5 5 0 5 98 36 100 100 100 70 4 58 61 0 0 0 0 3 5 2 5 5 1 0 2 3 5 0 0 0 0 0 0 0 0 0 0 0 0 0 0 0 0 0 0 5 5 5 5
5 10 48 7 5 5 19 20 77 5 0 0 0 0 0 0 0 0 0 4 99 5 5 0 0 0 0 0 0 0 0 0 0 0 0 0 0 0 0 0 0 0 0 0 0 0 5 0 5
5 5 83 51 6 5 3 33 2 0 3 0 0 3 0 0 0 0 4 5 1 0 0 0 0 0 0 0 0 0 0 0 0 0 0 0 0 0 0 0 0 0 0 0 0 5 5 5 15
0 5 97 46 35 25 4 99 7 0 0 0 5 5 5 0 0 0 0 0 0 0 0 0 0 0 0 0 0 0 0 0 0 0 0 0 0 0 0 0 0 0 0 0 0 0 4 5 5
0 5 78 100 44 5 2 2 95 5 5 5 96 9 5 5 0 0 0 5 0 0 0 0 0 0 0 0 0 0 0 0 0 0 0 0 0 0 0 0 0 0 0 0 0 0 0 5 5
4 0 5 5 43 0 69 0 5 22 5 2 5 55 32 5 0 0 0 3 0 0 0 0 0 0 0 0 0 0 0 0 0 0 0 0 0 0 0 0 0 0 0 0 0 0 0 1 26
5 0 1 4 5 24 14 5 37 93 17 24 31 5 4 4 0 0 0 0 0 0 0 0 0 0 4 0 0 0 0 0 0 0 0 0 0 0 0 0 0 0 0 0 0 0 0 0 0
0 0 0 0 0 5 1 23 84 98 60 90 100 5 5 0 0 0 0 0 0 0 0 0 0 0 0 0 0 0 0 0 0 0 0 0 0 0 0 0 0 0 0 0 0 0 0 0 0
0 0 0 0 0 0 60 100 98 100 100 100 91 1 0 4 0 0 0 0 0 0 0 0 0 0 0 0 0 0 0 0 0 0 0 0 0 0 0 0 0 0 0 0 0 0 0 0 0
0 0 0 0 0 1 87 61 47 100 100 97 62 5 0 52 4 0 0 0 0 0 0 0 0 0 0 0 0 0 0 0 0 0 0 0 0 0 0 0 0 0 0 0 0 0 0 0 0
0 0 0 0 0 0 22 85 90 100 100 96 55 90 0 73 5 1 0 0 0 0 0 0 0 0 0 0 0 0 0 0 0 0 0 0 0 1 0 0 0 0 4 9 0 0 0 0 0
0 0 0 0 0 0 0 99 89 100 18 27 5 5 5 6 100 4 0 0 0 0 0 0 0 0 0 0 0 0 0 0 0 0 0 0 0 4 0 0 0 0 0 5 2 0 0 0 0